CFG2120 EDDF-LOWI

Flight info

Callsign CFG2120
Flight time 1h 4m
Altitude 29000
Route SULUS7S SULUS Z650 NIKUS M736 RDG/N0459F280 M736 DOSEL/N0452F270 M736 TULSI TULSI3A
Aircraft A320/M-SDE3FGHIRWY/LB1

Departure

Time 2026-05-06 20:39
Airport Frankfurt Main Airport (EDDF)

Arrival

Time 2026-05-06 21:43
Airport Innsbruck Airport (LOWI)
Time Latitude Longitude Altitude Speed Heading
2026-05-06 20:18 50.04463 8.56424 358 ft 0 kts 155°
2026-05-06 20:27 50.04468 8.56420 358 ft 2 kts 155°
2026-05-06 20:28 50.04483 8.56410 366 ft 2 kts 155°
2026-05-06 20:28 50.04499 8.56400 365 ft 2 kts 182°
2026-05-06 20:28 50.04516 8.56406 362 ft 3 kts 218°
2026-05-06 20:28 50.04525 8.56421 362 ft 0 kts 246°
2026-05-06 20:32 50.04523 8.56414 361 ft 4 kts 246°
2026-05-06 20:33 50.04516 8.56385 362 ft 8 kts 249°
2026-05-06 20:33 50.04482 8.56239 365 ft 18 kts 250°
2026-05-06 20:33 50.04439 8.56065 363 ft 18 kts 250°
2026-05-06 20:33 50.04368 8.55927 357 ft 13 kts 186°
2026-05-06 20:34 50.04287 8.55957 357 ft 11 kts 172°
2026-05-06 20:34 50.04225 8.55878 358 ft 16 kts 248°
2026-05-06 20:34 50.04179 8.55684 361 ft 23 kts 248°
2026-05-06 20:34 50.04114 8.55420 359 ft 28 kts 250°
2026-05-06 20:35 50.04052 8.55145 359 ft 28 kts 248°
2026-05-06 20:35 50.03980 8.54856 359 ft 29 kts 249°
2026-05-06 20:35 50.03908 8.54556 356 ft 26 kts 249°
2026-05-06 20:35 50.03842 8.54330 347 ft 23 kts 237°
2026-05-06 20:36 50.03778 8.54128 350 ft 22 kts 249°
2026-05-06 20:36 50.03722 8.53893 351 ft 24 kts 250°
2026-05-06 20:36 50.03658 8.53629 335 ft 27 kts 249°
2026-05-06 20:36 50.03589 8.53348 335 ft 28 kts 250°
2026-05-06 20:37 50.03543 8.53155 337 ft 28 kts 248°
2026-05-06 20:37 50.03458 8.52816 351 ft 19 kts 247°
2026-05-06 20:37 50.03417 8.52661 354 ft 9 kts 244°
2026-05-06 20:37 50.03395 8.52619 351 ft 0 kts 225°
2026-05-06 20:38 50.03393 8.52617 349 ft 1 kts 226°
2026-05-06 20:38 50.03371 8.52597 351 ft 7 kts 198°
2026-05-06 20:38 50.03320 8.52593 352 ft 9 kts 180°
2026-05-06 20:38 50.03108 8.52599 343 ft 68 kts 180°
2026-05-06 20:39 50.02337 8.52601 353 ft 150 kts 180°
2026-05-06 20:39 50.01101 8.52632 670 ft 187 kts 181°
2026-05-06 20:39 49.99819 8.52642 1786 ft 186 kts 182°
2026-05-06 20:39 49.98466 8.52642 2497 ft 203 kts 182°
2026-05-06 20:40 49.97016 8.52983 2809 ft 228 kts 155°
2026-05-06 20:40 49.95809 8.54796 3155 ft 256 kts 119°
2026-05-06 20:40 49.94935 8.57326 3844 ft 271 kts 119°
2026-05-06 20:40 49.94032 8.59913 4793 ft 274 kts 121°
2026-05-06 20:41 49.93103 8.62542 5698 ft 279 kts 121°
2026-05-06 20:41 49.92174 8.65147 6642 ft 281 kts 121°
2026-05-06 20:41 49.91212 8.67822 7615 ft 283 kts 121°
2026-05-06 20:41 49.90238 8.70523 8385 ft 292 kts 121°
2026-05-06 20:42 49.89244 8.73302 9274 ft 295 kts 121°
2026-05-06 20:42 49.88240 8.76105 10112 ft 301 kts 121°
2026-05-06 20:42 49.87181 8.79055 10374 ft 326 kts 121°
2026-05-06 20:42 49.86042 8.82233 10623 ft 348 kts 121°
2026-05-06 20:43 49.84820 8.85611 10798 ft 371 kts 121°
2026-05-06 20:43 49.83512 8.89186 10921 ft 392 kts 121°
2026-05-06 20:43 49.82141 8.92919 11302 ft 403 kts 121°
2026-05-06 20:43 49.80747 8.96711 11891 ft 407 kts 121°
2026-05-06 20:44 49.79340 9.00552 12570 ft 410 kts 120°
2026-05-06 20:44 49.77934 9.04406 13236 ft 413 kts 120°
2026-05-06 20:44 49.76603 9.08367 13856 ft 417 kts 114°
2026-05-06 20:44 49.75650 9.12624 14412 ft 420 kts 105°
2026-05-06 20:45 49.74955 9.17018 14947 ft 423 kts 104°
2026-05-06 20:45 49.74250 9.21455 15472 ft 425 kts 105°
2026-05-06 20:45 49.73461 9.25878 15978 ft 427 kts 111°
2026-05-06 20:45 49.72123 9.29962 16453 ft 428 kts 121°
2026-05-06 20:46 49.70622 9.33955 16949 ft 431 kts 121°
2026-05-06 20:46 49.69103 9.37956 17434 ft 433 kts 122°
2026-05-06 20:46 49.67573 9.41968 17883 ft 435 kts 122°
2026-05-06 20:46 49.66025 9.46015 18300 ft 438 kts 122°
2026-05-06 20:47 49.64496 9.50009 18692 ft 439 kts 122°
2026-05-06 20:47 49.62920 9.54056 19066 ft 440 kts 125°
2026-05-06 20:47 49.60927 9.57619 19424 ft 439 kts 139°
2026-05-06 20:47 49.58660 9.60759 19795 ft 440 kts 140°
2026-05-06 20:48 49.56364 9.63895 20152 ft 441 kts 140°
2026-05-06 20:48 49.54047 9.67030 20501 ft 442 kts 140°
2026-05-06 20:48 49.51726 9.70155 20860 ft 443 kts 140°
2026-05-06 20:48 49.49412 9.73272 21193 ft 444 kts 140°
2026-05-06 20:49 49.47104 9.76388 21511 ft 445 kts 140°
2026-05-06 20:49 49.44775 9.79520 21833 ft 446 kts 141°
2026-05-06 20:49 49.42442 9.82656 22151 ft 446 kts 141°
2026-05-06 20:49 49.40112 9.85796 22459 ft 446 kts 141°
2026-05-06 20:50 49.37774 9.88955 22751 ft 447 kts 141°
2026-05-06 20:50 49.35447 9.92097 23012 ft 447 kts 141°
2026-05-06 20:50 49.33105 9.95241 23271 ft 447 kts 141°
2026-05-06 20:50 49.30757 9.98378 23484 ft 448 kts 141°
2026-05-06 20:51 49.28398 10.01533 23658 ft 449 kts 141°
2026-05-06 20:51 49.26042 10.04689 23858 ft 449 kts 141°
2026-05-06 20:51 49.23696 10.07833 24089 ft 449 kts 141°
2026-05-06 20:51 49.21376 10.10936 24367 ft 448 kts 141°
2026-05-06 20:52 49.19006 10.14098 24634 ft 447 kts 141°
2026-05-06 20:52 49.16653 10.17233 24862 ft 447 kts 141°
2026-05-06 20:52 49.14334 10.20322 25081 ft 447 kts 141°
2026-05-06 20:52 49.11988 10.23431 25320 ft 447 kts 142°
2026-05-06 20:53 49.09631 10.26542 25624 ft 447 kts 142°
2026-05-06 20:53 49.07280 10.29641 25964 ft 447 kts 142°
2026-05-06 20:53 49.04923 10.32746 26321 ft 447 kts 142°
2026-05-06 20:53 49.02577 10.35838 26629 ft 446 kts 142°
2026-05-06 20:54 49.00234 10.38925 26965 ft 446 kts 142°
2026-05-06 20:54 48.97877 10.42028 27321 ft 446 kts 143°
2026-05-06 20:54 48.95537 10.45109 27643 ft 445 kts 143°
2026-05-06 20:54 48.93197 10.48188 27913 ft 445 kts 143°
2026-05-06 20:55 48.90857 10.51265 28180 ft 445 kts 143°
2026-05-06 20:55 48.88507 10.54350 28445 ft 445 kts 143°
2026-05-06 20:55 48.86154 10.57430 28720 ft 445 kts 143°
2026-05-06 20:55 48.83809 10.60491 28993 ft 445 kts 143°
2026-05-06 20:56 48.81456 10.63553 29282 ft 445 kts 143°
2026-05-06 20:56 48.79108 10.66605 29558 ft 445 kts 143°
2026-05-06 20:56 48.76764 10.69651 29845 ft 445 kts 144°
2026-05-06 20:56 48.74413 10.72706 30092 ft 445 kts 144°
2026-05-06 20:57 48.72059 10.75762 30313 ft 445 kts 144°
2026-05-06 20:57 48.69709 10.78813 30538 ft 445 kts 144°
2026-05-06 20:57 48.67359 10.81861 30771 ft 445 kts 144°
2026-05-06 20:57 48.65007 10.84906 31011 ft 445 kts 144°
2026-05-06 20:58 48.62655 10.87941 31233 ft 444 kts 144°
2026-05-06 20:58 48.60301 10.90973 31486 ft 444 kts 144°
2026-05-06 20:58 48.57952 10.93993 31736 ft 444 kts 144°
2026-05-06 20:58 48.55595 10.97020 31870 ft 445 kts 144°
2026-05-06 20:59 48.53225 11.00065 31890 ft 448 kts 144°
2026-05-06 20:59 48.48466 11.06170 31891 ft 450 kts 144°
2026-05-06 21:00 48.43698 11.12287 31891 ft 450 kts 144°
2026-05-06 21:00 48.38906 11.18388 31889 ft 450 kts 146°
2026-05-06 21:00 48.36273 11.20823 31888 ft 441 kts 161°
2026-05-06 21:01 48.33374 11.22127 31902 ft 433 kts 175°
2026-05-06 21:01 48.30387 11.22265 31896 ft 427 kts 189°
2026-05-06 21:01 48.27523 11.21256 31907 ft 423 kts 202°
2026-05-06 21:02 48.22387 11.17118 31913 ft 422 kts 210°
2026-05-06 21:02 48.17288 11.12754 31909 ft 422 kts 210°
2026-05-06 21:03 48.12171 11.08400 31915 ft 423 kts 210°
2026-05-06 21:03 48.07059 11.04057 31918 ft 423 kts 210°
2026-05-06 21:04 48.01944 10.99721 31906 ft 423 kts 210°
2026-05-06 21:04 47.96822 10.95407 31870 ft 420 kts 210°
2026-05-06 21:04 47.94283 10.93265 31026 ft 418 kts 211°
2026-05-06 21:05 47.91757 10.91131 30054 ft 417 kts 211°
2026-05-06 21:05 47.89235 10.89001 28891 ft 417 kts 211°
2026-05-06 21:05 47.86694 10.86857 27576 ft 421 kts 210°
2026-05-06 21:05 47.84157 10.84723 26287 ft 428 kts 210°
2026-05-06 21:06 47.81539 10.82522 25379 ft 436 kts 209°
2026-05-06 21:06 47.78881 10.80287 24647 ft 442 kts 209°
2026-05-06 21:06 47.76200 10.78037 23931 ft 443 kts 208°
2026-05-06 21:06 47.73519 10.75795 23180 ft 442 kts 208°
2026-05-06 21:07 47.70853 10.73570 22370 ft 438 kts 208°
2026-05-06 21:07 47.68205 10.71363 21567 ft 433 kts 208°
2026-05-06 21:07 47.65595 10.69192 20792 ft 429 kts 208°
2026-05-06 21:07 47.63010 10.67042 20017 ft 423 kts 208°
2026-05-06 21:08 47.60457 10.64923 19241 ft 418 kts 208°
2026-05-06 21:08 47.57926 10.62827 18474 ft 415 kts 209°
2026-05-06 21:08 47.55413 10.60744 17630 ft 412 kts 209°
2026-05-06 21:08 47.52930 10.58683 16833 ft 407 kts 209°
2026-05-06 21:09 47.50481 10.56648 16130 ft 403 kts 209°
2026-05-06 21:09 47.48088 10.54664 15996 ft 385 kts 210°
2026-05-06 21:09 47.45794 10.52770 15861 ft 370 kts 209°
2026-05-06 21:09 47.43583 10.50985 15727 ft 355 kts 206°
2026-05-06 21:10 47.41261 10.49870 15313 ft 352 kts 190°
2026-05-06 21:10 47.38821 10.49809 14813 ft 352 kts 174°
2026-05-06 21:10 47.36464 10.50810 14309 ft 355 kts 158°
2026-05-06 21:10 47.34281 10.52511 13777 ft 355 kts 155°
2026-05-06 21:11 47.32116 10.54239 13224 ft 353 kts 154°
2026-05-06 21:11 47.30077 10.56228 12975 ft 357 kts 138°
2026-05-06 21:11 47.28744 10.59334 12899 ft 365 kts 111°
2026-05-06 21:11 47.28313 10.63048 12915 ft 372 kts 95°
2026-05-06 21:12 47.28396 10.66867 12914 ft 375 kts 86°
2026-05-06 21:12 47.28741 10.70684 12918 ft 376 kts 83°
2026-05-06 21:12 47.29162 10.74488 12914 ft 376 kts 83°
2026-05-06 21:12 47.29596 10.78294 12909 ft 377 kts 82°
2026-05-06 21:13 47.30047 10.82116 12913 ft 382 kts 82°
2026-05-06 21:13 47.30503 10.85944 12909 ft 385 kts 82°
2026-05-06 21:13 47.30973 10.89827 12908 ft 386 kts 82°
2026-05-06 21:13 47.31446 10.93718 12902 ft 386 kts 82°
2026-05-06 21:14 47.31921 10.97626 12901 ft 387 kts 82°
2026-05-06 21:14 47.32397 11.01533 12899 ft 387 kts 82°
2026-05-06 21:14 47.32867 11.05429 12893 ft 387 kts 82°
2026-05-06 21:14 47.33335 11.09361 12892 ft 396 kts 82°
2026-05-06 21:15 47.33816 11.13477 12890 ft 418 kts 82°
2026-05-06 21:15 47.34314 11.17736 12892 ft 424 kts 82°
2026-05-06 21:15 47.34820 11.22024 12887 ft 426 kts 82°
2026-05-06 21:15 47.35332 11.26328 12887 ft 426 kts 82°
2026-05-06 21:16 47.35841 11.30624 12891 ft 426 kts 82°
2026-05-06 21:16 47.36348 11.34935 12887 ft 425 kts 82°
2026-05-06 21:16 47.36854 11.39238 12881 ft 426 kts 82°
2026-05-06 21:16 47.37355 11.43531 12886 ft 425 kts 82°
2026-05-06 21:17 47.37853 11.47826 12893 ft 425 kts 82°
2026-05-06 21:17 47.38343 11.52077 12890 ft 425 kts 82°
2026-05-06 21:17 47.38843 11.56437 12884 ft 426 kts 82°
2026-05-06 21:17 47.39335 11.60750 12887 ft 425 kts 82°
2026-05-06 21:18 47.40043 11.64982 12879 ft 428 kts 70°
2026-05-06 21:18 47.41293 11.68882 12885 ft 409 kts 64°
2026-05-06 21:18 47.42540 11.72532 12883 ft 390 kts 64°
2026-05-06 21:18 47.43755 11.76079 12890 ft 384 kts 64°
2026-05-06 21:19 47.44947 11.79546 12884 ft 383 kts 64°
2026-05-06 21:19 47.45912 11.83191 12887 ft 380 kts 81°
2026-05-06 21:19 47.45929 11.87015 12886 ft 371 kts 107°
2026-05-06 21:19 47.44862 11.90393 12885 ft 361 kts 133°
2026-05-06 21:20 47.42951 11.92665 12879 ft 350 kts 159°
2026-05-06 21:20 47.41393 11.93337 12893 ft 344 kts 176°
2026-05-06 21:20 47.38373 11.92450 12879 ft 337 kts 212°
2026-05-06 21:20 47.36701 11.90075 12887 ft 338 kts 238°
2026-05-06 21:21 47.35965 11.86794 12870 ft 343 kts 262°
2026-05-06 21:21 47.36118 11.83305 12359 ft 344 kts 279°
2026-05-06 21:21 47.36638 11.79879 11518 ft 338 kts 272°
2026-05-06 21:21 47.36491 11.76496 10504 ft 326 kts 255°
2026-05-06 21:22 47.35794 11.73347 9028 ft 321 kts 244°
2026-05-06 21:22 47.34823 11.70424 7803 ft 312 kts 241°
2026-05-06 21:22 47.34157 11.68573 7471 ft 292 kts 241°
2026-05-06 21:22 47.33265 11.66032 7072 ft 266 kts 242°
2026-05-06 21:23 47.32507 11.63682 6791 ft 241 kts 244°
2026-05-06 21:23 47.31857 11.61516 6279 ft 230 kts 245°
2026-05-06 21:23 47.31235 11.59372 5615 ft 225 kts 246°
2026-05-06 21:23 47.30636 11.57253 4883 ft 223 kts 246°
2026-05-06 21:24 47.30043 11.55157 4291 ft 220 kts 246°
2026-05-06 21:24 47.29462 11.53102 3880 ft 212 kts 248°
2026-05-06 21:24 47.28914 11.51147 3527 ft 199 kts 248°
2026-05-06 21:24 47.28424 11.49380 3465 ft 176 kts 248°
2026-05-06 21:25 47.27979 11.47761 3236 ft 166 kts 248°
2026-05-06 21:25 47.27563 11.46212 2997 ft 158 kts 250°
2026-05-06 21:25 47.27225 11.44742 2883 ft 147 kts 252°
2026-05-06 21:25 47.26972 11.43279 2810 ft 147 kts 260°
2026-05-06 21:26 47.26818 11.41804 2737 ft 143 kts 261°
2026-05-06 21:26 47.26667 11.40378 2651 ft 140 kts 262°
2026-05-06 21:26 47.26504 11.38940 2514 ft 143 kts 261°
2026-05-06 21:26 47.26358 11.37515 2278 ft 141 kts 263°
2026-05-06 21:27 47.26203 11.36087 2005 ft 141 kts 263°
2026-05-06 21:27 47.26061 11.34740 1908 ft 121 kts 263°
2026-05-06 21:27 47.25915 11.33281 2129 ft 159 kts 263°
2026-05-06 21:27 47.25753 11.31674 3085 ft 160 kts 262°
2026-05-06 21:28 47.25613 11.30018 3888 ft 165 kts 263°
2026-05-06 21:28 47.25477 11.28232 4153 ft 186 kts 263°
2026-05-06 21:28 47.25329 11.26268 4521 ft 197 kts 263°
2026-05-06 21:28 47.25289 11.24234 4910 ft 207 kts 280°
2026-05-06 21:29 47.25790 11.22137 5218 ft 225 kts 292°
2026-05-06 21:29 47.26621 11.20160 5826 ft 232 kts 314°
2026-05-06 21:29 47.28001 11.18938 6584 ft 235 kts 345°
2026-05-06 21:29 47.29628 11.18855 7396 ft 237 kts
2026-05-06 21:30 47.31261 11.19252 8109 ft 241 kts
2026-05-06 21:30 47.32938 11.19540 8828 ft 244 kts
2026-05-06 21:30 47.34648 11.19788 9572 ft 249 kts
2026-05-06 21:30 47.36241 11.20705 10240 ft 253 kts 38°
2026-05-06 21:31 47.37394 11.22659 10856 ft 256 kts 65°
2026-05-06 21:31 47.37875 11.25165 11485 ft 256 kts 86°
2026-05-06 21:31 47.38076 11.27797 12150 ft 261 kts 86°
2026-05-06 21:31 47.38280 11.30484 12772 ft 267 kts 87°
2026-05-06 21:32 47.38494 11.33302 12902 ft 291 kts 86°
2026-05-06 21:32 47.38978 11.39634 12918 ft 317 kts 86°
2026-05-06 21:32 47.39234 11.42878 12914 ft 318 kts 86°
2026-05-06 21:33 47.39488 11.46117 12907 ft 319 kts 86°
2026-05-06 21:33 47.39740 11.49373 12906 ft 319 kts 86°
2026-05-06 21:33 47.39991 11.52621 12898 ft 319 kts 86°
2026-05-06 21:33 47.40243 11.55885 12905 ft 319 kts 86°
2026-05-06 21:34 47.40492 11.59139 12898 ft 319 kts 86°
2026-05-06 21:34 47.40860 11.62370 12901 ft 322 kts 73°
2026-05-06 21:34 47.41771 11.65402 12874 ft 323 kts 65°
2026-05-06 21:34 47.42781 11.68346 12525 ft 320 kts 64°
2026-05-06 21:35 47.43760 11.71279 12159 ft 317 kts 71°
2026-05-06 21:35 47.44085 11.74426 11898 ft 305 kts 99°
2026-05-06 21:35 47.43494 11.77326 11765 ft 289 kts 124°
2026-05-06 21:35 47.42239 11.79503 11631 ft 272 kts 147°
2026-05-06 21:36 47.40616 11.80738 11502 ft 256 kts 169°
2026-05-06 21:36 47.38902 11.80902 11369 ft 242 kts 192°
2026-05-06 21:36 47.37369 11.80091 11249 ft 230 kts 213°
2026-05-06 21:36 47.36202 11.78551 10996 ft 226 kts 232°
2026-05-06 21:37 47.35501 11.76489 10518 ft 227 kts 253°
2026-05-06 21:37 47.35196 11.74260 10030 ft 227 kts 252°
2026-05-06 21:37 47.34659 11.72080 9499 ft 226 kts 245°
2026-05-06 21:37 47.34069 11.69924 8952 ft 227 kts 246°
2026-05-06 21:38 47.33483 11.67766 8428 ft 227 kts 246°
2026-05-06 21:38 47.32901 11.65620 7794 ft 224 kts 246°
2026-05-06 21:38 47.32322 11.63521 7095 ft 223 kts 246°
2026-05-06 21:38 47.31745 11.61443 6277 ft 219 kts 246°
2026-05-06 21:39 47.31170 11.59365 5709 ft 219 kts 247°
2026-05-06 21:39 47.30610 11.57322 5399 ft 208 kts 248°
2026-05-06 21:39 47.30081 11.55396 5059 ft 199 kts 248°
2026-05-06 21:39 47.29589 11.53619 5021 ft 174 kts 248°
2026-05-06 21:40 47.29151 11.52043 4803 ft 163 kts 248°
2026-05-06 21:40 47.28740 11.50573 4588 ft 148 kts 248°
2026-05-06 21:40 47.28353 11.49197 4331 ft 143 kts 248°
2026-05-06 21:40 47.27968 11.47840 4018 ft 144 kts 248°
2026-05-06 21:41 47.27581 11.46476 3742 ft 145 kts 248°
2026-05-06 21:41 47.27232 11.45076 3499 ft 145 kts 255°
2026-05-06 21:41 47.27017 11.43633 3274 ft 143 kts 261°
2026-05-06 21:41 47.26866 11.42188 3059 ft 143 kts 262°
2026-05-06 21:42 47.26712 11.40740 2819 ft 143 kts 260°
2026-05-06 21:42 47.26546 11.39295 2553 ft 141 kts 262°
2026-05-06 21:42 47.26403 11.37892 2315 ft 138 kts 261°
2026-05-06 21:42 47.26252 11.36495 2064 ft 139 kts 260°
2026-05-06 21:43 47.26097 11.35111 1903 ft 128 kts 260°
2026-05-06 21:43 47.25989 11.34132 1906 ft 67 kts 261°
2026-05-06 21:43 47.25951 11.33753 1903 ft 12 kts 261°
2026-05-06 21:43 47.25908 11.33708 1917 ft 5 kts 169°
2026-05-06 21:44 47.25864 11.33772 1916 ft 12 kts 124°
2026-05-06 21:44 47.25811 11.33878 1903 ft 14 kts 126°
2026-05-06 21:44 47.25771 11.34030 1903 ft 19 kts 92°
2026-05-06 21:44 47.25791 11.34242 1902 ft 21 kts 81°
2026-05-06 21:45 47.25813 11.34463 1899 ft 23 kts 81°
2026-05-06 21:45 47.25840 11.34703 1897 ft 24 kts 81°
2026-05-06 21:45 47.25859 11.34926 1901 ft 22 kts 82°
2026-05-06 21:45 47.25874 11.35070 1901 ft 11 kts 81°
2026-05-06 21:46 47.25866 11.35154 1900 ft 8 kts 133°
2026-05-06 21:46 47.25834 11.35167 1901 ft 0 kts 173°